COSMOS 508

Satellite information

Favourite Embed

Satellite Type and Status

PAYLOADIN ORBIT

Key statistics

Satellite COSMOS 508 at a glance.

Uptime

19464

Days in orbit

Revolutions

≈ 12.5

Per day

Orbit

LEO

Low Earth Orbit

Inclination

74.0

Latest

Satellite identification and parameters

Extended collection of information and parameters for COSMOS 508.

Object identification

Identified? True

Debris? False

Object name: COSMOS 508

International designator: 1972-057E

Object number (NORAD): 6121

Object ID (CCSDS): 6121

Country: COMMONWEALTH OF INDEPENDENT STATES (CIS)

Current information (Y/N): Y

RCS size: MEDIUM

Orbital parameters

Period: 115.302 minutes

Inclination: 74.0281 deg

SMA: 7847.246 km

Apoapsis: 1494.994 km

Periapsis: 1443.229 km

RAAN: 333.2764 deg

Eccentricy: 0.00329831

Argument of periapsis: 76.5363 deg

Mean anomaly: 75.6695 deg

Mean motion: 12.48897632 rev/day

Mean motion (dot): 0.00000009 rev/day2

B* drag term: 0.00016707833 1/REarth

Two-line elements (TLE)

Creation date: Nov. 1, 2025, 7:40 p.m.

Reference frame: TEME

Reference center: EARTH

Epoch: Nov. 1, 2025, 12:44 p.m. UTC

TLE line 0: 0 COSMOS 508

TLE line 1: 1 06121U 72057E 25305.53095596 .00000009 00000-0 16708-3 0 9992

TLE line 2: 2 06121 74.0281 333.2764 0032983 76.5363 75.6695 12.48897632429279

Live tracking on map

Real-time ground track for satellite COSMOS 508.

In-orbit conjunctions

A list of the most updated potential collisions computed for object COSMOS 508.

Target Orbit TCA Probability of collision Miss distance Type
DELTA 1 DEB SSO 2025-03-21 07:26:29 0.0001079821 636.0 (m) DEBRIS

Associated space launch

Military communications satellites

COSMOS 508 was lifted into orbit during the mission ‘Kosmos-3M | Strela-1M 25-32’, on board a Kosmos-3M space rocket.

The launch took place on July 20, 1972, 6:10 p.m. from 132/2.

For more information about the launch, click the button.

Launch to space Kosmos-3M | Strela-1M 25-32
Kosmos-3M | Strela-1M 25-32

Agency: N/A

Status: Launch Successful

Launch date: July 20, 1972, 6:10 p.m. UTC

Rocket: Kosmos-3M

Launch pad: 132/2

Location: Plesetsk Cosmodrome, Russian Federation

...

Latest news about this satellite

There are no fresh news available about this satellite. Check back as we update our databases every day.


Newsletter sign-up

Weekly statistics, charts and insights to help you stay on top of the space industry.